Starlink 3240

operational
NORAD ID: 49728 Int'l Des: 2021-115 Owner: SPXS Country: US Constellation: starlink
LEOCIRCULAR

About Starlink 3240

Description loading...

Live Position

Loading 3D Globe...

Upcoming Passes

Altitude History

Altitude vs Time

uPlot chart will show altitude changes over time

Two-Line Element Set

1 49728U 21115E 26035.44745218 -.00000671 00000-0 -24085-4 0 9990
2 49728 53.2196 308.3494 0001747 73.2936 286.8247 15.08837751230375
Epoch: Feb 4, 2026 • Age: 13 hours

Current Status

Altitude 543.3 km
Velocity 7.60 km/s
Sub-Earth Point 44.94°N, 137.25°W
Launch Date Dec 2, 2021
Age 4.1 years
Type internet

Technical Details

Classification Payload
Mass 290.00 kg
Dry Mass 270.00 kg
Total Mass 290.00 kg
Length 0.20 m
Diameter 2.80 m
Span 9.00 m
Shape Box + pan
Manufacturer SPXS
Bus Type Starlink
Phase Status In Orbit
Owner/State SPXS/US

Large Constellations

Loading constellations...